,,PA_Meas_PMT16A,,PR_Meas_QMR101_102,,RH_Meas_QMH101,,SR_Meas_QMS101,,TA_Meas_QMH101,,GenWind,,GenWind,
time,status,PA,status,PR,status,RH,status,SR,status,TA,status,DirAvg,status,SpdAvg,
2012-04-03, 00:00:04,VALID,921.49,VALID,0,VALID,94.1644,VALID,0,VALID,19.5228,VALID,17,VALID,0.61875,
2012-04-03, 00:01:04,VALID,921.504,VALID,0,VALID,94.3321,VALID,0,VALID,19.5648,VALID,17,VALID,0.363672,
2012-04-03, 00:02:04,VALID,921.522,VALID,0,VALID,94.4617,VALID,0.107441,VALID,19.4809,VALID,17,VALID,0,
2012-04-03, 00:03:04,VALID,921.54,VALID,0,VALID,94.538,VALID,0,VALID,19.5648,VALID,17,VALID,0,
2012-04-03, 00:04:04,VALID,921.534,VALID,0,VALID,94.5685,VALID,0,VALID,19.5243,VALID,17,VALID,0,
2012-04-03, 00:05:04,VALID,921.501,VALID,0,VALID,94.4008,VALID,0,VALID,19.5858,VALID,17,VALID,0,
2012-04-03, 00:06:04,VALID,921.51,VALID,0,VALID,94.3474,VALID,0,VALID,19.5409,VALID,17,VALID,0,
2012-04-03, 00:07:04,VALID,921.48,VALID,0,VALID,94.233,VALID,0,VALID,19.6878,VALID,17,VALID,0,
2012-04-03, 00:08:04,VALID,921.509,VALID,0,VALID,94.0653,VALID,0,VALID,19.6863,VALID,17,VALID,0,
2012-04-03, 00:09:04,VALID,921.48,VALID,0,VALID,93.8976,VALID,0,VALID,19.6188,VALID,17,VALID,0.14375,
2012-04-03, 00:10:04,VALID,921.469,VALID,0,VALID,93.6842,VALID,0.107441,VALID,19.6803,VALID,17,VALID,0.122266,
2012-04-03, 00:11:04,VALID,921.431,VALID,0,VALID,93.425,VALID,0,VALID,19.6998,VALID,17,VALID,0,
2012-04-03, 00:12:04,VALID,921.402,VALID,0,VALID,93.1505,VALID,0,VALID,19.6983,VALID,17,VALID,0,
2012-04-03, 00:13:04,VALID,921.411,VALID,0,VALID,92.9828,VALID,0,VALID,19.6998,VALID,17,VALID,0,
2012-04-03, 00:14:04,VALID,921.339,VALID,0,VALID,92.8532,VALID,0,VALID,19.7793,VALID,17,VALID,0.103516,
2012-04-03, 00:15:04,VALID,921.291,VALID,0,VALID,92.4492,VALID,0,VALID,19.6998,VALID,17,VALID,0.428125,
2012-04-03, 00:16:04,VALID,921.308,VALID,0,VALID,92.2128,VALID,0,VALID,19.7418,VALID,17,VALID,0.685156,
2012-04-03, 00:17:04,VALID,921.247,VALID,0,VALID,92.594,VALID,0.107441,VALID,19.5603,VALID,17,VALID,0.694922,
2012-04-03, 00:18:04,VALID,921.24,VALID,0,VALID,92.9523,VALID,0,VALID,19.5828,VALID,17,VALID,0.449609,
2012-04-03, 00:19:04,VALID,921.201,VALID,0,VALID,93.4859,VALID,0,VALID,19.6668,VALID,17,VALID,0.491797,
2012-04-03, 00:20:04,VALID,921.193,VALID,0,VALID,93.8061,VALID,0,VALID,19.6023,VALID,17,VALID,0.569922,
2012-04-03, 00:21:04,VALID,921.154,VALID,0,VALID,93.6613,VALID,0,VALID,19.6428,VALID,17,VALID,0.3375,
2012-04-03, 00:22:04,VALID,921.167,VALID,0,VALID,93.5698,VALID,0,VALID,19.6248,VALID,17,VALID,0.475391,
2012-04-03, 00:23:04,VALID,921.194,VALID,0,VALID,93.5851,VALID,0,VALID,19.6458,VALID,17,VALID,0.431641,
2012-04-03, 00:24:04,VALID,921.141,VALID,0,VALID,93.89,VALID,0,VALID,19.6248,VALID,17,VALID,0.280078,
2012-04-03, 00:25:04,VALID,921.116,VALID,0,VALID,93.829,VALID,0.107441,VALID,19.5603,VALID,17,VALID,0,
2012-04-03, 00:26:04,VALID,921.095,VALID,0,VALID,93.7833,VALID,0,VALID,19.5813,VALID,17,VALID,0,
2012-04-03, 00:27:04,VALID,921.1,VALID,0,VALID,93.8595,VALID,0.107441,VALID,19.6668,VALID,17,VALID,0.312891,
2012-04-03, 00:28:04,VALID,921.047,VALID,0,VALID,94.1339,VALID,0.107441,VALID,19.6203,VALID,17,VALID,0.297266,
2012-04-03, 00:29:04,VALID,921.016,VALID,0,VALID,94.2788,VALID,0,VALID,19.6833,VALID,17,VALID,0.0472656,
2012-04-03, 00:30:04,VALID,921.012,VALID,0,VALID,93.9738,VALID,0,VALID,19.6623,VALID,17,VALID,0.360547,
2012-04-03, 00:31:04,VALID,921.032,VALID,0,VALID,93.8671,VALID,0,VALID,19.6428,VALID,17,VALID,0.160156,
2012-04-03, 00:32:04,VALID,921.029,VALID,0,VALID,93.951,VALID,0,VALID,19.6203,VALID,17,VALID,0.191016,
2012-04-03, 00:33:04,VALID,921.035,VALID,0,VALID,94.0425,VALID,0,VALID,19.5993,VALID,17,VALID,0,
2012-04-03, 00:34:04,VALID,921.031,VALID,0,VALID,94.0653,VALID,0,VALID,19.6833,VALID,17,VALID,0.126563,
2012-04-03, 00:35:04,VALID,921.055,VALID,0,VALID,94.0272,VALID,0,VALID,19.6608,VALID,17,VALID,0.309766,
2012-04-03, 00:36:04,VALID,921.057,VALID,0,VALID,93.8061,VALID,0,VALID,19.6233,VALID,17,VALID,0.508984,
2012-04-03, 00:37:04,VALID,921.076,VALID,0,VALID,93.6613,VALID,0,VALID,19.6218,VALID,17,VALID,0.325781,
2012-04-03, 00:38:04,VALID,921.092,VALID,0,VALID,93.6308,VALID,0,VALID,19.6848,VALID,17,VALID,0.299219,
2012-04-03, 00:39:04,VALID,921.053,VALID,0,VALID,93.5469,VALID,0.107441,VALID,19.5603,VALID,17,VALID,0.783203,
2012-04-03, 00:40:04,VALID,921.04,VALID,0,VALID,93.6079,VALID,0,VALID,19.5199,VALID,17,VALID,1.06484,
2012-04-03, 00:41:04,VALID,921.069,VALID,0,VALID,93.6079,VALID,0,VALID,19.6038,VALID,17,VALID,0.321875,
2012-04-03, 00:42:04,VALID,921.058,VALID,0,VALID,93.5698,VALID,0,VALID,19.5828,VALID,17,VALID,0.607422,
2012-04-03, 00:43:04,VALID,921.047,VALID,0,VALID,93.5241,VALID,0,VALID,19.5843,VALID,17,VALID,0.563281,
2012-04-03, 00:44:04,VALID,921.034,VALID,0,VALID,93.3868,VALID,0,VALID,19.5813,VALID,17,VALID,0.687109,
2012-04-03, 00:45:04,VALID,921.005,VALID,0,VALID,93.1048,VALID,0,VALID,19.6023,VALID,17,VALID,0.819922,
2012-04-03, 00:46:04,VALID,921.022,VALID,0,VALID,93.1581,VALID,0,VALID,19.5214,VALID,17,VALID,0.959375,
2012-04-03, 00:47:04,VALID,921.011,VALID,0,VALID,93.2877,VALID,0,VALID,19.6008,VALID,17,VALID,0.642969,
2012-04-03, 00:48:04,VALID,920.989,VALID,0,VALID,93.2496,VALID,0,VALID,19.6023,VALID,17,VALID,0.828516,
2012-04-03, 00:49:04,VALID,920.991,VALID,0,VALID,93.3182,VALID,0,VALID,19.6233,VALID,17,VALID,0.653516,
2012-04-03, 00:50:04,VALID,920.993,VALID,0,VALID,93.3564,VALID,0,VALID,19.6008,VALID,17,VALID,0.357422,
2012-04-03, 00:51:04,VALID,920.985,VALID,0,VALID,93.3411,VALID,0,VALID,19.6218,VALID,17,VALID,0.534766,
2012-04-03, 00:52:04,VALID,921.001,VALID,0,VALID,93.3106,VALID,0,VALID,19.6803,VALID,17,VALID,0.475,
2012-04-03, 00:53:04,VALID,920.994,VALID,0,VALID,93.2268,VALID,0,VALID,19.6788,VALID,17,VALID,0.658203,
2012-04-03, 00:54:04,VALID,920.94,VALID,0,VALID,93.059,VALID,0,VALID,19.6998,VALID,17,VALID,0.515234,
2012-04-03, 00:55:04,VALID,920.921,VALID,0,VALID,92.9676,VALID,0,VALID,19.7613,VALID,17,VALID,0.467578,
2012-04-03, 00:56:04,VALID,920.94,VALID,0,VALID,92.9523,VALID,0,VALID,19.6968,VALID,17,VALID,0.280078,
2012-04-03, 00:57:04,VALID,920.899,VALID,0,VALID,93.0438,VALID,0,VALID,19.8618,VALID,17,VALID,0.210547,
2012-04-03, 00:58:04,VALID,920.865,VALID,0,VALID,92.0832,VALID,0,VALID,19.7433,VALID,17,VALID,0,
2012-04-03, 00:59:04,VALID,920.852,VALID,0,VALID,92.594,VALID,0,VALID,19.6593,VALID,17,VALID,0.312109,
2012-04-03, 01:00:04,VALID,920.843,VALID,0,VALID,93.12,VALID,0,VALID,19.6608,VALID,17,VALID,0.423438,
2012-04-03, 01:01:04,VALID,920.821,VALID,0,VALID,93.425,VALID,0,VALID,19.7028,VALID,17,VALID,0.446484,
2012-04-03, 01:02:04,VALID,920.786,VALID,0,VALID,93.425,VALID,0.107441,VALID,19.6998,VALID,17,VALID,0.224609,
2012-04-03, 01:03:04,VALID,920.769,VALID,0,VALID,93.2725,VALID,0,VALID,19.7403,VALID,17,VALID,0,
2012-04-03, 01:04:04,VALID,920.758,VALID,0,VALID,92.9676,VALID,0,VALID,19.7403,VALID,17,VALID,0.00507812,
2012-04-03, 01:05:04,VALID,920.74,VALID,0,VALID,93.0057,VALID,0,VALID,19.7598,VALID,17,VALID,0,
2012-04-03, 01:06:04,VALID,920.718,VALID,0,VALID,92.9752,VALID,0,VALID,19.7193,VALID,17,VALID,0,
2012-04-03, 01:07:04,VALID,920.687,VALID,0,VALID,92.8837,VALID,0,VALID,19.7193,VALID,17,VALID,0,
2012-04-03, 01:08:04,VALID,920.636,VALID,0,VALID,92.9066,VALID,0,VALID,19.8198,VALID,17,VALID,0.0515625,
2012-04-03, 01:09:04,VALID,920.6,VALID,0,VALID,92.8989,VALID,0,VALID,19.7943,VALID,17,VALID,0,
2012-04-03, 01:10:04,VALID,920.574,VALID,0,VALID,92.7922,VALID,0,VALID,19.8588,VALID,17,VALID,0,
2012-04-03, 01:11:04,VALID,920.519,VALID,0,VALID,92.6321,VALID,0,VALID,19.8558,VALID,17,VALID,0,
2012-04-03, 01:12:04,VALID,920.491,VALID,0,VALID,92.1137,VALID,0,VALID,19.8768,VALID,17,VALID,0.616016,
2012-04-03, 01:13:04,VALID,920.482,VALID,0,VALID,91.9841,VALID,0,VALID,19.8768,VALID,17,VALID,0.401563,
2012-04-03, 01:14:04,VALID,920.467,VALID,0,VALID,91.8698,VALID,0,VALID,19.9383,VALID,17,VALID,0.246094,
2012-04-03, 01:15:04,VALID,920.463,VALID,0,VALID,91.4657,VALID,0,VALID,19.9143,VALID,17,VALID,0,
2012-04-03, 01:16:04,VALID,920.45,VALID,0,VALID,90.833,VALID,0,VALID,19.9338,VALID,17,VALID,0.0566406,
2012-04-03, 01:17:04,VALID,920.468,VALID,0,VALID,90.6577,VALID,0,VALID,19.9578,VALID,17,VALID,0.23125,
2012-04-03, 01:18:04,VALID,920.473,VALID,0,VALID,91.5344,VALID,0.107441,VALID,19.8558,VALID,17,VALID,0.283594,
2012-04-03, 01:19:04,VALID,920.433,VALID,0,VALID,91.3895,VALID,0,VALID,19.9143,VALID,17,VALID,0,
2012-04-03, 01:20:04,VALID,920.424,VALID,0,VALID,91.1456,VALID,0,VALID,19.9533,VALID,17,VALID,0,
2012-04-03, 01:21:04,VALID,920.402,VALID,0,VALID,90.9473,VALID,0.107441,VALID,20.0148,VALID,17,VALID,0,
2012-04-03, 01:22:04,VALID,920.39,VALID,0,VALID,90.5586,VALID,0,VALID,19.9533,VALID,17,VALID,0,
2012-04-03, 01:23:04,VALID,920.382,VALID,0,VALID,90.4595,VALID,0,VALID,19.9548,VALID,17,VALID,0.14375,
2012-04-03, 01:24:04,VALID,920.317,VALID,0,VALID,90.5967,VALID,0,VALID,19.8933,VALID,17,VALID,0.0105469,
2012-04-03, 01:25:04,VALID,920.248,VALID,0,VALID,90.7949,VALID,0,VALID,19.9548,VALID,17,VALID,0,
2012-04-03, 01:26:04,VALID,920.242,VALID,0,VALID,90.8864,VALID,0,VALID,19.8528,VALID,17,VALID,0,
2012-04-03, 01:27:04,VALID,920.22,VALID,0,VALID,90.9016,VALID,0,VALID,19.8528,VALID,17,VALID,0.272266,
2012-04-03, 01:28:04,VALID,920.16,VALID,0,VALID,90.9778,VALID,0,VALID,19.9353,VALID,17,VALID,0.282813,
2012-04-03, 01:29:04,VALID,920.146,VALID,0,VALID,90.9245,VALID,0,VALID,19.9578,VALID,17,VALID,0.219922,
2012-04-03, 01:30:04,VALID,920.108,VALID,0,VALID,90.833,VALID,0,VALID,19.8948,VALID,17,VALID,0.502734,
2012-04-03, 01:31:04,VALID,920.073,VALID,0,VALID,90.6882,VALID,0,VALID,19.9338,VALID,17,VALID,0.284375,
2012-04-03, 01:32:04,VALID,920.072,VALID,0,VALID,90.7568,VALID,0,VALID,19.9563,VALID,17,VALID,0.392969,
2012-04-03, 01:33:04,VALID,920.068,VALID,0,VALID,90.8559,VALID,0,VALID,19.9788,VALID,17,VALID,0.262891,
2012-04-03, 01:34:04,VALID,920.053,VALID,0,VALID,91.0007,VALID,0.107441,VALID,19.8963,VALID,17,VALID,0.183984,
2012-04-03, 01:35:04,VALID,920.063,VALID,0,VALID,91.0465,VALID,0,VALID,19.7943,VALID,17,VALID,0.242969,
2012-04-03, 01:36:04,VALID,920.039,VALID,0,VALID,91.0007,VALID,0,VALID,19.8588,VALID,17,VALID,0.167187,
2012-04-03, 01:37:04,VALID,920.004,VALID,0,VALID,90.9778,VALID,0,VALID,19.8573,VALID,17,VALID,0.040625,
2012-04-03, 01:38:04,VALID,920.025,VALID,0,VALID,90.9778,VALID,0,VALID,19.7763,VALID,17,VALID,0,
2012-04-03, 01:39:04,VALID,920.011,VALID,0,VALID,90.9626,VALID,0,VALID,19.7973,VALID,17,VALID,0,
2012-04-03, 01:40:04,VALID,920.022,VALID,0,VALID,90.894,VALID,0,VALID,19.8588,VALID,17,VALID,0,
2012-04-03, 01:41:04,VALID,920.03,VALID,0,VALID,90.894,VALID,0,VALID,19.8408,VALID,17,VALID,0,
2012-04-03, 01:42:04,VALID,920.016,VALID,0,VALID,90.8635,VALID,0,VALID,19.7778,VALID,17,VALID,0,
2012-04-03, 01:43:04,VALID,920.026,VALID,0,VALID,90.7415,VALID,0,VALID,19.7373,VALID,17,VALID,0.350391,
2012-04-03, 01:44:04,VALID,920.003,VALID,0,VALID,90.711,VALID,0,VALID,19.7178,VALID,17,VALID,0.603516,
2012-04-03, 01:45:04,VALID,920.004,VALID,0,VALID,90.7415,VALID,0,VALID,19.7598,VALID,17,VALID,0.326953,
2012-04-03, 01:46:04,VALID,919.997,VALID,0,VALID,90.9016,VALID,0,VALID,19.8048,VALID,17,VALID,0.586719,
2012-04-03, 01:47:04,VALID,919.983,VALID,0,VALID,90.9778,VALID,0,VALID,19.6788,VALID,17,VALID,0.475391,
2012-04-03, 01:48:04,VALID,920,VALID,0,VALID,90.9321,VALID,0.107441,VALID,19.7208,VALID,17,VALID,0.469922,
2012-04-03, 01:49:04,VALID,919.972,VALID,0,VALID,91.016,VALID,0,VALID,19.6983,VALID,339,VALID,0.439063,
2012-04-03, 01:50:04,VALID,919.955,VALID,0,VALID,91.1074,VALID,0.107441,VALID,19.8228,VALID,339,VALID,0.0207031,
2012-04-03, 01:51:04,VALID,919.935,VALID,0,VALID,91.3895,VALID,0,VALID,19.7778,VALID,339,VALID,0.23125,
2012-04-03, 01:52:04,VALID,919.947,VALID,0,VALID,91.6563,VALID,0.107441,VALID,19.8198,VALID,339,VALID,0,
2012-04-03, 01:53:04,VALID,919.951,VALID,0,VALID,91.7402,VALID,0,VALID,19.7823,VALID,339,VALID,0,
2012-04-03, 01:54:04,VALID,919.952,VALID,0,VALID,91.6563,VALID,0,VALID,19.6983,VALID,339,VALID,0,
2012-04-03, 01:55:04,VALID,919.953,VALID,0,VALID,91.7554,VALID,0,VALID,19.7418,VALID,339,VALID,0.00351562,
2012-04-03, 01:56:04,VALID,919.945,VALID,0,VALID,91.9155,VALID,0,VALID,19.7808,VALID,339,VALID,0.139062,
2012-04-03, 01:57:04,VALID,919.926,VALID,0,VALID,92.0909,VALID,0,VALID,19.7448,VALID,339,VALID,0,
2012-04-03, 01:58:04,VALID,919.908,VALID,0,VALID,92.0223,VALID,0,VALID,19.6608,VALID,339,VALID,0,
2012-04-03, 01:59:04,VALID,919.894,VALID,0,VALID,92.129,VALID,0,VALID,19.6233,VALID,339,VALID,0,
2012-04-03, 02:00:04,VALID,919.909,VALID,0,VALID,92.2052,VALID,0,VALID,19.6008,VALID,339,VALID,0,
2012-04-03, 02:01:04,VALID,919.876,VALID,0,VALID,92.2357,VALID,0,VALID,19.6248,VALID,339,VALID,0,
2012-04-03, 02:02:04,VALID,919.865,VALID,0,VALID,92.2128,VALID,0,VALID,19.6458,VALID,339,VALID,0,
2012-04-03, 02:03:04,VALID,919.86,VALID,0,VALID,92.1976,VALID,0,VALID,19.5019,VALID,339,VALID,0,
2012-04-03, 02:04:04,VALID,919.881,VALID,0,VALID,92.1442,VALID,0,VALID,19.5423,VALID,339,VALID,0.242578,
2012-04-03, 02:05:04,VALID,919.858,VALID,0,VALID,92.0604,VALID,0,VALID,19.5648,VALID,339,VALID,0.0234375,
2012-04-03, 02:06:04,VALID,919.865,VALID,0,VALID,91.9841,VALID,0,VALID,19.6248,VALID,339,VALID,0,
2012-04-03, 02:07:04,VALID,919.845,VALID,0,VALID,91.7707,VALID,0,VALID,19.5828,VALID,339,VALID,0.353516,
2012-04-03, 02:08:04,VALID,919.831,VALID,0,VALID,91.7021,VALID,0,VALID,19.6053,VALID,339,VALID,0.544531,
2012-04-03, 02:09:04,VALID,919.779,VALID,0,VALID,91.8622,VALID,0,VALID,19.5258,VALID,339,VALID,0.473437,
2012-04-03, 02:10:04,VALID,919.792,VALID,0,VALID,91.9308,VALID,0,VALID,19.5663,VALID,339,VALID,0.694141,
2012-04-03, 02:11:04,VALID,919.793,VALID,0,VALID,91.8393,VALID,0,VALID,19.5063,VALID,339,VALID,0.4125,
2012-04-03, 02:12:04,VALID,919.79,VALID,0,VALID,91.9765,VALID,0,VALID,19.4463,VALID,339,VALID,0.418359,
2012-04-03, 02:13:04,VALID,919.743,VALID,0,VALID,92.0299,VALID,0,VALID,19.4268,VALID,339,VALID,0.532422,
2012-04-03, 02:14:04,VALID,919.751,VALID,0,VALID,92.0527,VALID,0,VALID,19.4283,VALID,339,VALID,0.403516,
2012-04-03, 02:15:04,VALID,919.727,VALID,0,VALID,92.3348,VALID,0,VALID,19.4074,VALID,113,VALID,0.694922,
2012-04-03, 02:16:04,VALID,919.738,VALID,0,VALID,92.5102,VALID,0,VALID,19.4493,VALID,113,VALID,0.66875,
2012-04-03, 02:17:04,VALID,919.703,VALID,0,VALID,92.7007,VALID,0.107441,VALID,19.4088,VALID,113,VALID,0.728906,
2012-04-03, 02:18:04,VALID,919.676,VALID,0,VALID,92.6931,VALID,0,VALID,19.3893,VALID,113,VALID,0.716406,
2012-04-03, 02:19:04,VALID,919.609,VALID,0,VALID,92.6855,VALID,0,VALID,19.3474,VALID,114,VALID,0.583594,
2012-04-03, 02:20:04,VALID,919.651,VALID,0,VALID,92.6169,VALID,0,VALID,19.4088,VALID,113,VALID,0.338672,
2012-04-03, 02:21:04,VALID,919.615,VALID,0,VALID,92.4797,VALID,0,VALID,19.4103,VALID,114,VALID,0.178516,
2012-04-03, 02:22:04,VALID,919.599,VALID,0,VALID,92.2814,VALID,0,VALID,19.3893,VALID,113,VALID,0.264453,
2012-04-03, 02:23:04,VALID,919.571,VALID,0,VALID,92.2967,VALID,0,VALID,19.3099,VALID,114,VALID,0.255078,
2012-04-03, 02:24:04,VALID,919.528,VALID,0,VALID,92.5178,VALID,0,VALID,19.2709,VALID,114,VALID,0.245703,
2012-04-03, 02:25:04,VALID,919.54,VALID,0,VALID,92.6321,VALID,0,VALID,19.2109,VALID,113,VALID,0.383984,
2012-04-03, 02:26:04,VALID,919.552,VALID,0,VALID,92.8303,VALID,0,VALID,19.1944,VALID,113,VALID,0.350391,
2012-04-03, 02:27:04,VALID,919.524,VALID,0,VALID,93.059,VALID,0,VALID,19.1135,VALID,113,VALID,0.326562,
2012-04-03, 02:28:04,VALID,919.527,VALID,0,VALID,93.12,VALID,0,VALID,19.055,VALID,114,VALID,0.258594,
2012-04-03, 02:29:04,VALID,919.528,VALID,0,VALID,93.1581,VALID,0,VALID,18.998,VALID,114,VALID,0.372266,
2012-04-03, 02:30:04,VALID,919.5,VALID,0,VALID,93.2039,VALID,0,VALID,18.9619,VALID,114,VALID,0.348437,
2012-04-03, 02:31:04,VALID,919.508,VALID,0,VALID,93.242,VALID,0,VALID,18.8002,VALID,113,VALID,0.250781,
2012-04-03, 02:32:04,VALID,919.514,VALID,0,VALID,93.3945,VALID,0,VALID,18.7236,VALID,113,VALID,0.391797,
2012-04-03, 02:33:04,VALID,919.529,VALID,0,VALID,93.8747,VALID,0,VALID,18.764,VALID,113,VALID,0.141016,
2012-04-03, 02:34:04,VALID,919.552,VALID,0,VALID,94.073,VALID,0,VALID,18.7655,VALID,113,VALID,0,
2012-04-03, 02:35:04,VALID,919.561,VALID,0,VALID,94.3474,VALID,0,VALID,18.6847,VALID,113,VALID,0.104687,
2012-04-03, 02:36:04,VALID,919.553,VALID,0,VALID,94.4846,VALID,0,VALID,18.7042,VALID,113,VALID,0.117969,
2012-04-03, 02:37:04,VALID,919.576,VALID,0,VALID,94.5837,VALID,0,VALID,18.8073,VALID,113,VALID,0,
2012-04-03, 02:38:04,VALID,919.565,VALID,0,VALID,94.7057,VALID,0,VALID,18.7431,VALID,113,VALID,0.267578,
2012-04-03, 02:39:04,VALID,919.599,VALID,0,VALID,94.7133,VALID,0,VALID,18.803,VALID,113,VALID,0.264844,
2012-04-03, 02:40:04,VALID,919.58,VALID,0,VALID,94.6142,VALID,0,VALID,18.803,VALID,113,VALID,0,
2012-04-03, 02:41:04,VALID,919.589,VALID,0,VALID,94.4389,VALID,0,VALID,18.8644,VALID,113,VALID,0,
2012-04-03, 02:42:04,VALID,919.566,VALID,0,VALID,94.355,VALID,0,VALID,18.8225,VALID,113,VALID,0,
2012-04-03, 02:43:04,VALID,919.549,VALID,0,VALID,94.3093,VALID,0,VALID,18.8839,VALID,113,VALID,0,
2012-04-03, 02:44:04,VALID,919.499,VALID,0,VALID,94.3398,VALID,0,VALID,18.9229,VALID,114,VALID,0,
2012-04-03, 02:45:04,VALID,919.497,VALID,0,VALID,94.1568,VALID,0,VALID,18.9019,VALID,113,VALID,0,
2012-04-03, 02:46:04,VALID,919.494,VALID,0,VALID,94.0501,VALID,0.107441,VALID,18.92,VALID,113,VALID,0,
2012-04-03, 02:47:04,VALID,919.49,VALID,0,VALID,94.0425,VALID,0,VALID,18.9005,VALID,113,VALID,0,
2012-04-03, 02:48:04,VALID,919.492,VALID,0,VALID,94.1492,VALID,0,VALID,18.9842,VALID,113,VALID,0.316016,
2012-04-03, 02:49:04,VALID,919.473,VALID,0,VALID,94.294,VALID,0,VALID,18.9409,VALID,114,VALID,0.508203,
2012-04-03, 02:50:04,VALID,919.481,VALID,0,VALID,94.3931,VALID,0,VALID,18.9799,VALID,113,VALID,0.599609,
2012-04-03, 02:51:04,VALID,919.494,VALID,0,VALID,94.355,VALID,0,VALID,18.9994,VALID,114,VALID,0.678125,
2012-04-03, 02:52:04,VALID,919.501,VALID,0,VALID,94.4999,VALID,0,VALID,19.0369,VALID,105,VALID,0.704297,
2012-04-03, 02:53:04,VALID,919.523,VALID,0,VALID,94.3398,VALID,0,VALID,19.0745,VALID,105,VALID,0.674609,
2012-04-03, 02:54:04,VALID,919.535,VALID,0,VALID,94.0882,VALID,0,VALID,19.1359,VALID,105,VALID,0.635156,
2012-04-03, 02:55:04,VALID,919.528,VALID,0,VALID,93.951,VALID,0,VALID,19.1568,VALID,105,VALID,0.541797,
2012-04-03, 02:56:04,VALID,919.544,VALID,0,VALID,93.9205,VALID,0,VALID,19.2153,VALID,105,VALID,0.436719,
2012-04-03, 02:57:04,VALID,919.527,VALID,0,VALID,93.7756,VALID,0,VALID,19.1944,VALID,105,VALID,0.332812,
2012-04-03, 02:58:04,VALID,919.538,VALID,0,VALID,93.6689,VALID,0,VALID,19.1929,VALID,105,VALID,0.368359,
2012-04-03, 02:59:04,VALID,919.552,VALID,0,VALID,93.6384,VALID,0,VALID,19.2543,VALID,105,VALID,0.309766,
2012-04-03, 03:00:04,VALID,919.526,VALID,0,VALID,93.5469,VALID,0,VALID,19.1929,VALID,105,VALID,0.204297,
2012-04-03, 03:01:04,VALID,919.527,VALID,0,VALID,93.5698,VALID,0,VALID,19.2139,VALID,105,VALID,0.350781,
2012-04-03, 03:02:04,VALID,919.515,VALID,0,VALID,93.707,VALID,0,VALID,19.2139,VALID,105,VALID,0.140234,
2012-04-03, 03:03:04,VALID,919.511,VALID,0,VALID,93.7147,VALID,0,VALID,19.1525,VALID,105,VALID,0,
2012-04-03, 03:04:04,VALID,919.5,VALID,0,VALID,93.6155,VALID,0,VALID,19.1749,VALID,105,VALID,0,
2012-04-03, 03:05:04,VALID,919.472,VALID,0,VALID,93.8595,VALID,0,VALID,19.1749,VALID,105,VALID,0,
2012-04-03, 03:06:04,VALID,919.431,VALID,0,VALID,93.5088,VALID,0,VALID,19.1373,VALID,105,VALID,0.373047,
2012-04-03, 03:07:04,VALID,919.419,VALID,0,VALID,93.5241,VALID,0,VALID,19.0759,VALID,105,VALID,0.401172,
2012-04-03, 03:08:04,VALID,919.421,VALID,0,VALID,93.9357,VALID,0,VALID,19.0954,VALID,89,VALID,0.591797,
2012-04-03, 03:09:04,VALID,919.382,VALID,0,VALID,94.012,VALID,0,VALID,19.1373,VALID,28,VALID,0.274609,
2012-04-03, 03:10:04,VALID,919.396,VALID,0,VALID,93.9205,VALID,0,VALID,19.1359,VALID,28,VALID,0.028125,
2012-04-03, 03:11:04,VALID,919.33,VALID,0,VALID,93.1581,VALID,0,VALID,19.0564,VALID,28,VALID,0.377734,
2012-04-03, 03:12:04,VALID,919.317,VALID,0,VALID,93.0819,VALID,0,VALID,18.9756,VALID,28,VALID,0.0429688,
2012-04-03, 03:13:04,VALID,919.302,VALID,0,VALID,92.5025,VALID,0,VALID,18.9604,VALID,28,VALID,0.127734,
2012-04-03, 03:14:04,VALID,919.286,VALID,0,VALID,92.7007,VALID,0,VALID,18.9395,VALID,28,VALID,0,
2012-04-03, 03:15:04,VALID,919.264,VALID,0,VALID,93.4402,VALID,0,VALID,18.9395,VALID,28,VALID,0.0339844,
2012-04-03, 03:16:04,VALID,919.261,VALID,0,VALID,93.9129,VALID,0,VALID,18.9604,VALID,28,VALID,0.416016,
2012-04-03, 03:17:04,VALID,919.255,VALID,0,VALID,94.1034,VALID,0,VALID,19.0023,VALID,28,VALID,0.198828,
2012-04-03, 03:18:04,VALID,919.255,VALID,0,VALID,94.3321,VALID,0,VALID,18.9604,VALID,28,VALID,0.330859,
2012-04-03, 03:19:04,VALID,919.229,VALID,0,VALID,94.477,VALID,0,VALID,18.9814,VALID,28,VALID,0.489844,
2012-04-03, 03:20:04,VALID,919.25,VALID,0,VALID,94.3855,VALID,0,VALID,18.9814,VALID,28,VALID,0.0851562,
2012-04-03, 03:21:04,VALID,919.261,VALID,0,VALID,94.3017,VALID,0,VALID,18.9619,VALID,28,VALID,0.289844,
2012-04-03, 03:22:04,VALID,919.243,VALID,0,VALID,94.4236,VALID,0,VALID,18.9186,VALID,28,VALID,0.505469,
2012-04-03, 03:23:04,VALID,919.238,VALID,0,VALID,94.4541,VALID,0,VALID,18.9814,VALID,28,VALID,0.458984,
2012-04-03, 03:24:04,VALID,919.201,VALID,0,VALID,94.4236,VALID,0,VALID,18.9186,VALID,28,VALID,0.714844,
2012-04-03, 03:25:04,VALID,919.198,VALID,0,VALID,94.3855,VALID,0,VALID,18.8991,VALID,28,VALID,0.866797,
2012-04-03, 03:26:04,VALID,919.178,VALID,0,VALID,94.3855,VALID,0,VALID,18.9633,VALID,28,VALID,0.680078,
2012-04-03, 03:27:04,VALID,919.189,VALID,0,VALID,94.355,VALID,0,VALID,18.9424,VALID,28,VALID,0.796875,
2012-04-03, 03:28:04,VALID,919.208,VALID,0,VALID,94.1339,VALID,0,VALID,18.8629,VALID,28,VALID,0.635156,
2012-04-03, 03:29:04,VALID,919.208,VALID,0,VALID,94.1034,VALID,0,VALID,18.824,VALID,28,VALID,0.685156,
2012-04-03, 03:30:04,VALID,919.171,VALID,0,VALID,94.0348,VALID,0,VALID,18.7446,VALID,28,VALID,0.542969,
2012-04-03, 03:31:04,VALID,919.164,VALID,0,VALID,94.1644,VALID,0,VALID,18.7669,VALID,28,VALID,0.382813,
2012-04-03, 03:32:04,VALID,919.112,VALID,0,VALID,94.2635,VALID,0,VALID,18.7265,VALID,28,VALID,0.446875,
2012-04-03, 03:33:04,VALID,919.123,VALID,0,VALID,94.5532,VALID,0,VALID,18.7669,VALID,28,VALID,0.420312,
2012-04-03, 03:34:04,VALID,919.081,VALID,0,VALID,94.7286,VALID,0,VALID,18.785,VALID,28,VALID,0.219141,
2012-04-03, 03:35:04,VALID,919.109,VALID,0,VALID,94.6752,VALID,0,VALID,18.803,VALID,28,VALID,0,
2012-04-03, 03:36:04,VALID,919.062,VALID,0,VALID,94.4236,VALID,0,VALID,18.8658,VALID,28,VALID,0,
2012-04-03, 03:37:04,VALID,919.069,VALID,0,VALID,94.1949,VALID,0,VALID,18.8449,VALID,28,VALID,0,
2012-04-03, 03:38:04,VALID,919.059,VALID,0,VALID,93.9967,VALID,0,VALID,18.8449,VALID,28,VALID,0,
2012-04-03, 03:39:04,VALID,919.051,VALID,0,VALID,94.0577,VALID,0,VALID,18.8434,VALID,28,VALID,0,
2012-04-03, 03:40:04,VALID,919.035,VALID,0,VALID,93.9891,VALID,0,VALID,18.8615,VALID,28,VALID,0,
2012-04-03, 03:41:04,VALID,919.035,VALID,0,VALID,93.7833,VALID,0,VALID,18.8824,VALID,28,VALID,0,
2012-04-03, 03:42:04,VALID,919.021,VALID,0,VALID,93.6918,VALID,0,VALID,18.9214,VALID,28,VALID,0,
2012-04-03, 03:43:04,VALID,919.043,VALID,0,VALID,93.5088,VALID,0,VALID,18.9214,VALID,28,VALID,0,
2012-04-03, 03:44:04,VALID,919.019,VALID,0,VALID,92.9294,VALID,0,VALID,18.9019,VALID,28,VALID,0,
2012-04-03, 03:45:04,VALID,919.017,VALID,0,VALID,92.7922,VALID,0,VALID,18.9424,VALID,28,VALID,0,
2012-04-03, 03:46:04,VALID,919.01,VALID,0,VALID,93.0209,VALID,0,VALID,18.8796,VALID,28,VALID,0,
2012-04-03, 03:47:04,VALID,919.019,VALID,0,VALID,93.0285,VALID,0,VALID,18.9619,VALID,28,VALID,0,
2012-04-03, 03:48:04,VALID,918.992,VALID,0,VALID,93.0819,VALID,0,VALID,18.9604,VALID,27,VALID,0,
2012-04-03, 03:49:04,VALID,918.952,VALID,0,VALID,92.8685,VALID,0,VALID,18.9604,VALID,27,VALID,0,